Back to catalog

METEOR 2-11 DEB

AlivePO
NORAD 40704·DEBRIS·🇷🇺 Russia

Launched Jul 5, 1984 from Plesetsk Cosmodrome

Loading…

Next Passes (next 24 hours)

TLE

FreshSource: Space-Track

Epoch: Sep 11, 2026, 09:59 UTC

1 40704U 84072F   26254.41627072  .00001014  00000-0  68472-3 0  9990
2 40704  82.5167 295.0313 0030912  80.5079 279.9581 13.99344436579449

Track METEOR 2-11 DEB in real time with AllMySat

Download on the App Store